Location: Butte
(46.0040°N, 112.5340°W)
Time: 18:12:30
(UTC-07:00)

Daily predictions for brighter satellites

Satellite Brightness Start Highest point End
(mag) Time Altitude Azimuth Time Altitude Azimuth Time Altitude Azimuth
Lacrosse 5 rocket 1.9 17:50:21 10° WNW 17:54:02 58° SW 17:57:54 10° SE
Cosmos 332 Rocket 4.2 17:50:04 10° SSW 17:54:53 69° WNW 17:59:46 10° NNE
Cosmos 44 3.4 17:50:39 10° SSW 17:55:52 75° ESE 18:00:53 10° NE
CZ-2C R/B 2.7 17:56:13 10° S 18:01:09 74° WSW 18:05:56 10° NNW
Cosmos 2219 Rocket 2.4 17:55:45 10° SSW 18:01:23 75° WNW 18:07:02 10° NNE
Cosmos 1726 2.1 17:57:50 10° N 18:01:38 80° E 18:05:24 10° SSE
NOSS 0 Rocket 4.0 17:56:05 10° SSW 18:02:19 81° ESE 18:08:34 10° NNE
ALOS 3.9 18:02:44 10° E 18:05:05 14° ENE 18:07:25 10° NNE
Cosmos 1328 3.7 18:03:57 10° S 18:07:53 85° E 18:11:52 10° N
Cosmos 1674 4.4 18:04:42 10° SW 18:08:16 36° WNW 18:11:52 10° N
Cosmos 2333 Rocket 2.3 18:02:50 10° SSW 18:08:29 83° WNW 18:14:12 10° NNE
Cosmos 1455 3.4 18:06:26 10° NNE 18:09:28 22° ENE 18:12:29 10° SE
COSMOS 2441 4.3 18:05:17 10° SSE 18:10:08 78° ENE 18:14:59 10° N
Abrixas 2.5 18:09:03 10° WSW 18:11:57 65° SSE 18:14:25 14° ENE
Cosmos 2278 Rocket 2.8 18:08:04 10° NNW 18:13:41 62° WSW 18:19:16 10° S
MSX 4.0 18:11:28 10° SSE 18:17:12 81° WSW 18:22:59 10° NNW
CENTAUR R/B 3.6 18:13:28 10° WSW 18:19:27 42° NW 18:26:13 10° NNE
Cosmos 1242 Rocket 4.3 18:17:49 10° NE 18:19:08 13° ENE 18:19:08 13° ENE
SMAP 4.0 18:16:06 10° S 18:20:39 54° W 18:25:14 10° NNW
Cosmos 1184 Rocket 4.3 18:18:31 10° SE 18:20:52 18° E 18:22:06 15° ENE
Timation 1 Rocket 4.4 18:15:17 10° NNW 18:21:21 86° ENE 18:27:22 10° SSE
Cosmos 1703 3.7 18:17:54 10° SSE 18:21:30 37° E 18:25:08 10° NNE
Cosmos 371 Rocket 4.1 18:18:05 10° SW 18:22:46 51° WNW 18:27:28 10° NNE
USA 116 4.0 18:20:22 10° N 18:23:28 52° WNW 18:26:29 10° SSW
CZ-4 R/B 3.2 18:21:31 10° SSW 18:25:04 34° W 18:28:42 10° NNW
SJ-6B 3.7 18:22:49 10° SE 18:26:23 29° ENE 18:29:58 10° N
Cosmos 1300 3.8 18:25:52 10° NNW 18:29:35 48° W 18:33:17 10° SSW
Cosmos 1707 Rocket 3.6 18:25:28 10° N 18:29:42 51° ENE 18:33:55 10° SSE
USA 229 DEB 4.5 18:24:06 10° S 18:29:56 31° ESE 18:34:38 15° ENE
MONITOR-E 4.5 18:26:54 10° S 18:30:02 73° WSW 18:33:14 10° NNW
USA 229 4.5 18:24:13 10° S 18:30:03 31° ESE 18:34:42 15° ENE
Cosmos 2151 3.3 18:27:52 10° SSW 18:32:04 69° W 18:36:16 10° N
COSMO-SKYMED 1 2.6 18:27:48 10° NNE 18:32:08 61° ESE 18:36:25 10° S
YAOGAN 1 3.9 18:28:47 10° S 18:32:55 44° W 18:37:06 10° NNW
Iridium 4 Rocket 4.2 18:31:06 10° SE 18:34:28 22° E 18:37:08 13° NE
Cosmos 2237 Rocket 2.7 18:34:12 10° SW 18:39:46 62° WNW 18:45:24 10° NNE
Thor Agena Rocket 4.0 18:35:45 10° N 18:40:56 63° WNW 18:46:02 10° SSW
Cosmos 2369 Rocket 3.3 18:36:31 10° N 18:41:00 23° NE 18:42:51 20° ENE
FREGAT/IRIS 3.3 18:38:58 10° SE 18:41:43 31° ENE 18:44:30 10° N
Cosmos 1666 Rocket 3.7 18:38:36 10° SSE 18:42:46 47° E 18:47:00 10° NNE
FAST Rocket 4.3 18:41:28 10° SSE 18:43:58 43° E 18:46:08 16° NNE
Cosmos 1538 Rocket 4.1 18:42:31 10° S 18:47:44 61° ESE 18:53:01 10° NNE
SL-16 R/B 2.1 18:42:36 10° SSW 18:48:13 73° ESE 18:53:50 10° NNE
Cosmos 1484 Rocket 3.8 18:45:34 10° S 18:49:25 50° W 18:53:21 10° NNW
Cosmos 1340 Rocket 3.1 18:48:19 10° SSW 18:52:13 66° WNW 18:56:08 10° N
Resurs 01 Rocket 2.3 18:49:46 11° SE 18:53:27 32° ENE 18:57:24 10° N
Meteor 1-28 Rocket 3.0 18:50:21 10° NNE 18:54:05 76° ESE 18:57:47 10° S
TIMED 4.5 18:51:20 10° NNW 18:55:41 59° ENE 19:00:00 10° SE
Cosmos 304 Rocket 3.9 18:51:36 10° SSW 18:56:25 77° WNW 19:01:15 10° NNE
Lacrosse 4 Rocket 1.2 18:54:28 10° NNW 18:58:31 67° ENE 19:01:45 15° SE
Cosmos 2297 4.4 18:53:16 10° NNW 18:58:51 57° WSW 19:04:26 10° S
Blok-2BL 3.7 18:56:34 10° NNW 18:59:40 39° NE 18:59:40 39° NE
Cosmos 1680 Rocket 4.3 18:57:39 10° SSE 19:02:06 29° E 19:02:29 29° E
Aureole 2 Rocket 4.2 19:00:34 10° SW 19:04:11 36° WNW 19:08:03 10° N
Cosmos 1869 3.3 19:00:32 10° N 19:04:33 58° E 19:08:32 10° SSE
Cosmos 1867 4.5 19:01:44 10° NNW 19:06:28 29° NE 19:07:15 28° NE
CZ-4C R/B 3.9 19:01:23 10° NNW 19:06:39 24° NNE 19:08:40 21° NE
FENGYUN 3A 3.7 19:08:29 10° SSE 19:13:42 55° ENE 19:18:58 10° N
METEOR-M 4.2 19:08:27 10° SSE 19:13:48 83° WSW 19:19:12 10° NNW
Cosmos 1470 Rocket 3.8 19:11:44 10° SSE 19:15:29 43° ESE 19:15:29 43° ESE
Cosmos 2242 Rocket 3.5 19:17:09 10° N 19:21:36 88° WSW 19:26:03 10° S
Cosmos 773 Rocket 3.8 19:16:54 10° SSW 19:22:03 80° ESE 19:25:15 24° NNE
NOAA 12 4.5 19:16:54 10° S 19:22:07 66° WSW 19:27:23 10° NNW
Cosmos 1461 3.6 19:19:19 10° SW 19:23:19 47° NW 19:25:03 28° N
Cosmos 1626 3.1 19:21:30 10° SSW 19:25:07 46° WNW 19:28:46 10° N
Lacrosse 5 3.1 19:21:44 10° NW 19:26:00 26° NNE 19:26:32 26° NNE
ATLAS 5 CENTAUR R/B 3.2 19:23:47 10° NNW 19:28:51 30° NE 19:28:57 30° NE
Orbus 7S? 4.4 19:27:19 10° NW 19:31:29 81° SW 19:41:04 11° SE
ATLAS 3B R/B 4.0 19:26:45 10° NNW 19:32:03 22° NNE 19:33:09 21° NNE
USA 215 3.3 19:28:14 22° SE 19:32:48 81° SW 19:39:24 10° NW
Sich 1 3.8 19:29:23 10° SSW 19:33:43 53° WNW 19:38:05 10° N
Nadezhda 4 Rocket 4.3 19:27:47 10° SSW 19:34:03 70° W 19:40:24 10° N
Cosmos 2026 Rocket 3.9 19:31:45 10° SSE 19:37:46 55° E 19:40:53 28° NNE
Cosmos 2112 Rocket 4.3 19:33:27 10° S 19:37:38 46° SE 19:37:38 46° SE
ALOS 2.2 19:37:12 10° SSE 19:41:52 82° WSW 19:46:34 10° NNW
BREEZE M DEB (TANK) 4.4 19:41:47 10° WSW 19:42:29 12° SW 19:42:29 12° SW
Aureole 1 Rocket 4.1 19:38:30 10° SSW 19:44:14 78° WNW 19:51:47 10° NNE
Cosmos 1633 Rocket 4.0 19:40:02 10° SSW 19:44:17 46° WNW 19:48:32 10° N
Cosmos 1455 4.3 19:41:54 10° NNW 19:45:10 28° W 19:48:27 10° SSW
Cosmos 1943 Rocket 3.4 19:41:12 10° N 19:44:17 26° NNE 19:44:17 26° NNE
Cosmos 292 Rocket 3.7 19:48:15 10° SSW 19:52:44 79° SSW 19:52:44 79° SSW
Cosmos 1603 3.5 19:47:26 10° SSW 19:53:03 88° ESE 19:54:02 62° NNE
Meteor 2-20 4.3 19:47:03 10° S 19:53:05 65° E 19:53:36 63° ENE
Cosmos 1242 Rocket 4.4 19:51:37 10° NNW 19:53:28 26° NW 19:53:28 26° NW
Cosmos 1092 Rocket 4.3 19:50:17 10° SSW 19:56:35 66° W 20:02:55 10° N
Cosmos 1553 Rocket 4.3 19:52:51 10° N 19:57:35 49° NNE 19:57:35 49° NNE
Cosmos 972 Rocket 4.0 19:55:07 10° NNW 20:00:23 88° ENE 20:00:40 81° SSE
Cosmos 1862 Rocket 4.2 20:00:37 10° NNW 20:04:40 52° W 20:04:40 52° W
Spot 2 Rocket 4.2 20:05:26 10° S 20:10:20 51° W 20:15:16 10° NNW
USA 229 DEB 3.9 20:13:38 10° SW 20:20:27 65° NW 20:22:08 50° N
USA 229 3.9 20:13:43 10° SW 20:20:33 65° NW 20:22:11 51° N
Cosmos 2369 Rocket 2.6 20:19:57 10° NNW 20:24:42 60° WNW 20:24:42 60° WNW
Resurs 01 Rocket 3.5 20:27:18 17° SW 20:29:55 29° W 20:33:47 10° NW
SL-16 R/B 4.2 20:28:32 10° W 20:32:56 23° NW 20:35:45 16° N
Lacrosse 4 Rocket 4.4 20:34:55 10° W 20:36:40 13° WSW 20:38:14 10° SW
CZ-4C R/B 3.7 20:49:40 10° NW 20:53:53 39° NNW 20:53:53 39° NNW
Lacrosse 5 4.4 21:04:47 10° NW 21:05:45 16° NW 21:05:45 16° NW
ATLAS 5 CENTAUR R/B 4.1 21:08:10 10° NW 21:10:32 26° NW 21:10:32 26° NW
ATLAS 3B R/B 4.4 21:17:39 10° NNW 21:20:25 24° NNW 21:20:25 24° NNW
